DW0360 Weather Reports


time (UTC)temp
C
wind
direction
speed
KPH
gust
KPH
rain 1hr
cm
rain 24hr
cm
rain mn
cm
humidity
%
barometer
mb
20220627201600 33 10 3.2 22.5 0.00 0.00 0.00 53 1017.6
20220627200104 33 15 4.8 20.9 0.00 0.00 0.00 54 1017.8
20220627194554 33 97 4.8 14.5 0.00 0.00 0.00 56 1017.8
20220627193051 33 36 6.4 17.7 0.00 0.00 0.00 54 1018.0
20220627191549 32 127 1.6 14.5 0.00 0.00 0.00 55 1018.1
20220627190049 32 74 3.2 16.1 0.00 0.00 0.00 55 1018.3
20220627184548 32 24 4.8 14.5 0.00 0.00 0.00 54 1018.6
20220627183046 32 355 4.8 14.5 0.00 0.00 0.00 55 1018.8
20220627181543 32 82 3.2 8.0 0.00 0.00 0.00 58 1019.0
20220627180042 32 13 3.2 12.9 0.00 0.00 0.00 54 1019.2
20220627174538 32 35 1.6 9.7 0.00 0.00 0.00 58 1019.3
20220627173036 32 43 3.2 6.4 0.00 0.00 0.00 58 1019.4
20220627171532 31 18 3.2 9.7 0.00 0.00 0.00 59 1019.6
20220627170028 31 17 3.2 12.9 0.00 0.00 0.00 62 1019.6
20220627164532 30 71 6.4 14.5 0.00 0.00 0.00 60 1019.6
20220627163023 30 355 4.8 19.3 0.00 0.00 0.00 60 1019.7
20220627161520 30 57 4.8 17.7 0.00 0.00 0.00 60 1019.7
20220627160016 29 19 8.0 17.7 0.00 0.00 0.00 61 1019.7
20220627154516 28 44 6.4 24.1 0.00 0.00 0.00 62 1019.7
20220627153112 28 61 4.8 17.7 0.00 0.00 0.00 62 1019.8
20220627151506 27 42 4.8 14.5 0.00 0.00 0.00 63 1019.8
20220627150003 27 33 4.8 22.5 0.00 0.00 0.00 65 1019.8
20220627144602 27 11 4.8 14.5 0.00 0.00 0.00 65 1019.9
20220627143101 26 355 4.8 14.5 0.00 0.00 0.00 65 1020.0
20220627141557 26 46 3.2 14.5 0.00 0.00 0.00 65 1020.0
20220627140105 25 61 1.6 9.7 0.00 0.00 0.00 65 1019.8
20220627134556 24 54 1.6 9.7 0.00 0.00 0.00 66 1019.8
20220627133054 23 63 3.2 8.0 0.00 0.00 0.00 66 1019.7
20220627131557 23 36 1.6 6.4 0.00 0.00 0.00 65 1019.7
20220627130052 23 35 3.2 12.9 0.00 0.00 0.00 65 1019.5
20220627124549 22 67 3.2 11.3 0.00 0.00 0.00 64 1019.5
20220627123048 22 25 1.6 8.0 0.00 0.00 0.00 65 1019.2
20220627121544 22 77 1.6 8.0 0.00 0.00 0.00 65 1019.1
20220627120044 22 5 1.6 9.7 0.00 0.00 0.00 64 1019.1
20220627114540 22 355 1.6 12.9 0.00 0.00 0.00 63 1018.7
20220627113043 22 24 1.6 6.4 0.00 0.00 0.00 63 1018.7
20220627111544 22 15 3.2 14.5 0.00 0.00 0.00 63 1018.7
20220627110037 22 12 1.6 6.4 0.00 0.00 0.00 62 1018.6
20220627104536 22 13 1.6 8.0 0.00 0.00 0.00 62 1018.4
20220627103044 22 39 1.6 8.0 0.00 0.00 0.00 61 1018.4
20220627101535 22 27 1.6 6.4 0.00 0.00 0.00 61 1018.4
20220627100043 22 15 1.6 12.9 0.00 0.00 0.00 60 1018.3
20220627094535 22 28 1.6 12.9 0.00 0.00 0.00 60 1018.3
20220627093031 23 5 1.6 11.3 0.00 0.00 0.00 58 1018.6
20220627091528 23 51 1.6 6.4 0.00 0.00 0.00 58 1018.5
20220627090026 23 21 1.6 9.7 0.00 0.00 0.00 57 1018.4
20220627084524 23 5 1.6 6.4 0.00 0.00 0.00 56 1018.2
20220627083023 23 24 1.6 12.9 0.00 0.00 0.00 56 1018.1
20220627081519 24 5 0.0 4.8 0.00 0.00 0.00 57 1018.1
20220627080017 25 5 4.8 19.3 0.00 0.00 0.00 57 1018.0
20220627074515 25 21 1.6 8.0 0.00 0.00 0.00 60 1018.1
20220627073020 25 45 1.6 9.7 0.00 0.00 0.00 63 1017.9
20220627071510 25 9 1.6 6.4 0.00 0.00 0.00 65 1018.1
20220627070009 25 11 1.6 8.0 0.00 0.00 0.00 65 1018.1
20220627064507 26 20 1.6 4.8 0.00 0.00 0.00 66 1018.2
20220627063006 26 80 1.6 6.4 0.00 0.00 0.00 65 1018.1
20220627061504 26 21 1.6 9.7 0.00 0.00 0.00 65 1018.3
20220627060002 26 32 3.2 14.5 0.00 0.00 0.00 65 1018.3
20220627054601 26 9 3.2 16.1 0.00 0.00 0.00 65 1018.1
20220627053059 27 64 3.2 9.7 0.00 0.00 0.00 64 1018.1
20220627051556 27 360 4.8 14.5 0.00 0.00 0.00 64 1018.0
20220627050054 27 93 1.6 9.7 0.00 0.00 0.00 63 1018.0
20220627044553 27 5 4.8 14.5 0.00 0.00 0.00 63 1017.9
20220627043054 28 18 3.2 14.5 0.00 0.00 0.00 64 1017.8
20220627041551 28 254 3.2 14.5 0.00 0.00 0.00 63 1017.7
20220627040047 28 32 4.8 20.9 0.00 0.00 0.00 62 1017.3
20220627034545 28 18 4.8 17.7 0.00 0.00 0.00 61 1017.2
20220627033044 29 29 4.8 9.7 0.00 0.00 0.00 62 1017.1
20220627031543 29 200 3.2 9.7 0.00 0.00 0.00 62 1016.9
20220627030043 30 9 8.0 22.5 0.00 0.00 0.00 61 1016.7
20220627024545 30 26 1.6 16.1 0.00 0.00 0.00 62 1016.5
20220627023041 30 5 3.2 14.5 0.00 0.00 0.00 61 1016.5
20220627021542 31 82 3.2 16.1 0.00 0.00 0.00 61 1016.1
20220627020040 31 13 3.2 16.1 0.00 0.00 0.00 60 1015.9
20220627014539 31 13 3.2 16.1 0.00 0.00 0.00 59 1015.5
20220627013039 32 349 3.2 12.9 0.00 0.00 0.00 57 1015.1
20220627011546 33 29 1.6 12.9 0.00 0.00 0.00 55 1014.7
20220627010038 33 15 4.8 9.7 0.00 0.00 0.00 52 1014.5
20220627004537 34 35 4.8 16.1 0.00 0.00 0.00 50 1014.4
20220627003046 35 281 4.8 19.3 0.00 0.00 0.00 47 1014.4
20220627001535 35 55 3.2 17.7 0.00 0.00 0.00 46 1014.2
20220627000035 35 32 1.6 9.7 0.00 0.00 0.00 46 1014.1
20220626234534 35 332 3.2 8.0 0.00 0.00 0.00 45 1013.8
20220626233035 35 347 1.6 6.4 0.00 0.00 0.00 46 1013.7
20220626231635 35 74 1.6 6.4 0.00 0.00 0.00 45 1013.5
20220626230037 36 34 3.2 8.0 0.00 0.00 0.00 43 1013.6
20220626224539 37 30 1.6 6.4 0.00 0.00 0.00 37 1013.6
20220626223035 37 46 1.6 14.5 0.00 0.00 0.00 35 1013.4
20220626221531 38 195 1.6 12.9 0.00 0.00 0.00 34 1013.7
20220626220030 38 27 8.0 19.3 0.00 0.00 0.00 33 1013.7
20220626214533 39 67 4.8 9.7 0.00 0.00 0.00 32 1013.7
20220626213030 39 32 1.6 8.0 0.00 0.00 0.00 33 1014.0
20220626211527 39 19 3.2 8.0 0.00 0.00 0.00 30 1014.1
20220626210026 38 94 4.8 8.0 0.00 0.00 0.00 31 1014.2
20220626204525 38 19 3.2 8.0 0.00 0.00 0.00 31 1014.4
20220626203025 37 46 1.6 14.5 0.00 0.00 0.00 33 1014.5